Regional Weather Roundup
Issued by NWS

Home | Current Version | Previous Version | Graphics & Text | Print | Product List | Glossary On
Versions: 1 2 3 4 5 6 7 8 9 10 11 12 13 14 15 16 17 18 19 20 21 22 23 24 25 26 27 28 29 30 31 32 33 34 35 36 37 38 39 40 41 42 43 44 45 46 47 48 49 50
000
ASUS43 KLOT 160608
RWRIL

ILLINOIS REGIONAL WEATHER ROUNDUP
NATIONAL WEATHER SERVICE CHICAGO/ROMEOVILLE IL
1200 AM CST MON JAN 16 2017

NOTE: "FAIR" INDICATES FEW OR NO CLOUDS BELOW 12,000 FEET WITH NO
SIGNIFICANT WEATHER AND/OR OBSTRUCTIONS TO VISIBILITY.

* THESE STATIONS ARE NOT UNDER NWS QUALITY CONTROL. THEY ALSO MAY NOT
  REPORT WEATHER SUCH AS PRECIPITATION OR FOG.

ILZ001-002-007-009-015-016-024-160700-
NORTHWEST ILLINOIS

CITY           SKY/WX    TMP DP  RH WIND       PRES   REMARKS
MOLINE         CLOUDY    33  27  78 E7        30.24F HAZE    WCI  27
6HR MIN TEMP:  31; 6HR MAX TEMP:  33;

STERLING*      MIX PCPN  30  28  92 E6        30.27F FOG     WCI  24
SAVANNA*       CLOUDY    30  24  77 E3        30.27F
$$

ILZ003-004-008-010-011-017-018-160700-
NORTH CENTRAL ILLINOIS

CITY           SKY/WX    TMP DP  RH WIND       PRES   REMARKS
ROCKFORD       CLOUDY    30  22  72 CALM      30.29F
6HR MIN TEMP:  26; 6HR MAX TEMP:  31;

FREEPORT*      CLOUDY    28  23  82 SE5       30.29S WCI  23
ROCHELLE*      CLOUDY    30  27  88 E5        30.28F FOG     WCI  25
DE KALB*       CLOUDY    31  26  81 SE6       30.28F WCI  25
$$

ILZ005-006-012>014-019>023-160700-
NORTHEAST ILLINOIS

CITY           SKY/WX    TMP DP  RH WIND       PRES   REMARKS
CHICAGO-OHARE  CLOUDY    30  24  78 SE5       30.29S WCI  25
6HR MIN TEMP:  28; 6HR MAX TEMP:  32;

CHICAGO-MIDWAY CLOUDY    33  26  75 SE5       30.30F WCI  29
6HR MIN TEMP:  32; 6HR MAX TEMP:  34;

AURORA         CLOUDY    31  25  78 E5        30.29F HAZE    WCI  26
6HR MIN TEMP:  30; 6HR MAX TEMP:  32;

LANSING*       PTCLDY    31  29  92 CALM      30.31S
JOLIET*        CLOUDY    33  30  87 CALM      30.30F
WAUKEGAN       PTCLDY    25  22  88 CALM      30.29F FOG
6HR MIN TEMP:  22; 6HR MAX TEMP:  26;

DUPAGE AIRPORT CLOUDY    31  24  75 SE3       30.28F
6HR MIN TEMP:  28; 6HR MAX TEMP:  31;

KANKAKEE*      CLOUDY    32  28  85 CALM      30.30S
WHEELING       CLOUDY    28  22  78 CALM      30.31F
6HR MIN TEMP:  26; 6HR MAX TEMP:  31;

MORRIS*        CLOUDY    32  29  90 CALM      30.29S FOG
ROMEOVILLE*    CLOUDY    31  30  96 E3        30.29F
NORTHERLY ISL    N/A     31  28  89 SE1         N/A
$$

LMZ740>746-160700-
SOUTHERN LAKE MICHIGAN

STATION/POSITION SKY/WX   TEMP    WIND        PRES    VSBY  WAVE
                          AIR SEA DIR/SP/G                  HT/PER
                          (F)     (DEG/KT/KT) (MB)    (MI)  (FT/S)
HARRISON CRIB              33     140/  7/  7   N/A
BURNHAM HARBOR             31     130/  2       N/A
CALUMET HARBOR             31     120/  3/  4 1025.7
BURNS HARBOR               32     140/  4/  9 1026.8F
MICHIGAN CITY              31     130/  5/  5   N/A
$$

ILZ025>027-034>036-040-047-049-050-058-095>099-160700-
WEST-CENTRAL ILLINOIS

CITY           SKY/WX    TMP DP  RH WIND       PRES   REMARKS
QUINCY         FOG       32  32 100 E8        30.19F VSB 3/4 WCI  25
GALESBURG*     CLOUDY    32  29  90 E6        30.23F WCI  26
MACOMB*        CLOUDY    32  31  98 E8        30.25F FOG     WCI  25
JACKSONVILLE*  CLOUDY    32  32  99 E7        30.22F FOG     WCI  26
PITTSFIELD*    CLOUDY    33  33  99 E3        30.21S FOG
$$

ILZ028>032-037-038-041>044-048-051>054-059>061-160700-
CENTRAL ILLINOIS

CITY           SKY/WX    TMP DP  RH WIND       PRES   REMARKS
PONTIAC        CLOUDY    33  33  99 E5        30.29S FOG     WCI  29
BLOOMINGTON    CLOUDY    32  30  92 E10       30.25F FOG     WCI  24
DECATUR        CLOUDY    33  33 100 E7        30.25F FOG     WCI  27
PEORIA         CLOUDY    33  30  88 E6        30.26F FOG     WCI  28
6HR MIN TEMP:  33; 6HR MAX TEMP:  33; 6HR PCP:  0.01;

LACON*         DRIZZLE   33  30  91 E3        30.26F
LINCOLN*       CLOUDY    34  33  97 E5        30.25F FOG     WCI  30
SPRINGFIELD    CLOUDY    35  32  88 E5        30.24F FOG     WCI  31
6HR MIN TEMP:  34; 6HR MAX TEMP:  35;

TAYLORVILLE    CLOUDY    33  33  98 E6        30.23F FOG     WCI  28
6HR MIN TEMP:  32; 6HR MAX TEMP:  33;

$$

ILZ033-039-045-046-055>057-062-063-160700-
EAST-CENTRAL ILLINOIS

CITY           SKY/WX    TMP DP  RH WIND       PRES   REMARKS
CHAMPAIGN      CLOUDY    33  31  92 E7        30.27S FOG     WCI  27
RANTOUL*       CLOUDY    34  33  94 E6        30.26F FOG     WCI  29
MATTOON        CLOUDY    34  34 100 E3        30.24S FOG
PARIS*         CLOUDY    33  33  99 E3        30.27F FOG
$$

ILZ079-100>102-160700-
SOUTHWEST ILLINOIS

CITY           SKY/WX    TMP DP  RH WIND       PRES   REMARKS
ALTON          CLOUDY    35  35 100 E3        30.22F FOG
BELLEVILLE     FOG       37  37 100 CALM      30.21S VSB 1/4
CAHOKIA*       CLOUDY    38  36  92 E5        30.21F FOG     WCI  34
SPARTA*        FOG       38  38  99 CALM      30.22F VSB 1/2
$$

ILZ064>066-069>071-074>076-080>082-084>086-088>090-092>094-160700-
SOUTH-CENTRAL ILLINOIS

CITY           SKY/WX    TMP DP  RH WIND       PRES   REMARKS
CARBONDALE     CLOUDY    40  40 100 CALM      30.22F FOG
6HR MIN TEMP:  38; 6HR MAX TEMP:  40;

CAIRO*         CLOUDY    41  41 100 NE5       30.21F FOG
EFFINGHAM*     CLOUDY    37  37 100 E5        30.26F FOG     WCI  33
MARION         CLOUDY    41  41 100 CALM      30.23S FOG
MT. VERNON     CLOUDY    39  38  96 E3        30.23F FOG
CENTRALIA*     CLOUDY    39  39 100 CALM      30.22F FOG
SALEM*         CLOUDY    39  38  94 E3        30.23S FOG
METROPOLIS*    CLOUDY    42  42  98 CALM      30.23F FOG
$$

ILZ067-068-072-073-078-083-087-091-160700-
SOUTHEAST ILLINOIS

CITY           SKY/WX    TMP DP  RH WIND       PRES   REMARKS
LAWRENCEVILLE  CLOUDY    39  38  96 E6        30.26F WCI  35
FLORA*         CLOUDY    39  38  97 E6        30.24F FOG     WCI  35
FAIRFIELD*     CLOUDY    39  39 100 CALM      30.22F FOG
HARRISBURG*    CLOUDY    40  40 100 E5        30.24S FOG
ROBINSON*      CLOUDY    37  36  99 E3        30.27F FOG
CARMI*         CLOUDY    40  40  99 E3        30.23F FOG
$$

ABBREVIATIONS USED IN REMARKS
   TC - TEMPERATURE IN CELSIUS
  WCI - WIND CHILL INDEX
   HX - HEAT INDEX
  VSB - VISIBILITY
$$





USA.gov is the U.S. government's official web portal to all federal, state and local government web resources and services.